Location: Adamstown South Public School
(32.9318°S, 151.7012°E)
Time: 18:01:41
(UTC+00:00)

Cosmos 494 Rocket - Pass Details

Date: 07 June 2020
Orbit: 743 x 770 km, 74.1° (Epoch: 04 July)

Event Time Altitude Azimuth Distance (km) Brightness Sun altitude
Rises 07:20:19 0° 355° (N) 3,168 7.6 -5.9°
Reaches altitude 10° 07:22:41 10° 359° (N) 2,253 6.8 -6.4°
Maximum altitude 07:27:40 57° 77° (ENE) 882 4.1 -7.4°
Drops below altitude 10° 07:32:44 10° 154° (SSE) 2,288 6.0 -8.4°
Sets 07:35:09 0° 158° (SSE) 3,222 6.8 -8.8°
